Location: El Hornillo
(40.2499°N, 5.1036°W)
Time: 21:50:29
(UTC+00:00)

Cosmos 2344 - Pass Details

Date: 05 August 2024
Orbit: 1207 x 3035 km, 63.3° (Epoch: 14 September)

Event Time Altitude Azimuth Distance (km) Brightness Sun altitude
Exits shadow 23:15:51 25° 236° (SW) 2,317 4.8 -30.8°
Maximum altitude 23:20:25 62° 308° (NW) 1,361 3.8 -31.1°
Drops below altitude 10° 23:27:38 10° 29° (NNE) 3,196 6.2 -31.5°
Sets 23:30:29 0° 34° (NNE) 4,239 6.8 -31.7°
